DAL1476 KMSP-KDTW

Flight info

Callsign DAL1476
Flight time 1h 26m
Altitude 37000
Route COULT7 DLL PORZL RKCTY2
Aircraft A321/M-SDE3FGHIRWY/LB1

Departure

Time 2026-05-04 21:19
Airport Minneapolis–Saint Paul International Airport / Wold–Chamberlain Field (KMSP)

Arrival

Time 2026-05-04 22:45
Airport Detroit Metropolitan Wayne County Airport (KDTW)
Time Latitude Longitude Altitude Speed Heading
2026-05-04 21:04 44.88368 -93.20607 825 ft 0 kts 220°
2026-05-04 21:09 44.88369 -93.20606 816 ft 1 kts 220°
2026-05-04 21:09 44.88387 -93.20584 824 ft 4 kts 220°
2026-05-04 21:09 44.88404 -93.20565 822 ft 4 kts 223°
2026-05-04 21:10 44.88415 -93.20539 825 ft 4 kts 282°
2026-05-04 21:10 44.88405 -93.20508 820 ft 4 kts 301°
2026-05-04 21:10 44.88401 -93.20499 821 ft 0 kts 301°
2026-05-04 21:14 44.88404 -93.20507 820 ft 5 kts 301°
2026-05-04 21:14 44.88447 -93.20603 823 ft 15 kts 302°
2026-05-04 21:14 44.88490 -93.20702 824 ft 4 kts 300°
2026-05-04 21:14 44.88501 -93.20718 825 ft 7 kts 323°
2026-05-04 21:15 44.88537 -93.20660 821 ft 10 kts 90°
2026-05-04 21:15 44.88506 -93.20576 825 ft 10 kts 122°
2026-05-04 21:15 44.88472 -93.20494 825 ft 10 kts 121°
2026-05-04 21:15 44.88432 -93.20403 822 ft 13 kts 122°
2026-05-04 21:16 44.88375 -93.20271 823 ft 17 kts 121°
2026-05-04 21:16 44.88313 -93.20127 825 ft 18 kts 121°
2026-05-04 21:16 44.88248 -93.19976 825 ft 18 kts 121°
2026-05-04 21:16 44.88182 -93.19824 825 ft 18 kts 121°
2026-05-04 21:17 44.88117 -93.19673 822 ft 18 kts 121°
2026-05-04 21:17 44.88059 -93.19532 823 ft 13 kts 106°
2026-05-04 21:17 44.88098 -93.19437 823 ft 11 kts 30°
2026-05-04 21:17 44.88156 -93.19465 825 ft 9 kts 304°
2026-05-04 21:18 44.88161 -93.19477 825 ft 0 kts 301°
2026-05-04 21:18 44.88175 -93.19508 825 ft 18 kts 301°
2026-05-04 21:18 44.88368 -93.19955 824 ft 85 kts 301°
2026-05-04 21:18 44.88770 -93.20886 823 ft 135 kts 301°
2026-05-04 21:19 44.89283 -93.22047 1389 ft 135 kts 303°
2026-05-04 21:19 44.89994 -93.22893 2050 ft 142 kts 341°
2026-05-04 21:19 44.91003 -93.22969 2658 ft 152 kts 356°
2026-05-04 21:19 44.92136 -93.22831 2891 ft 174 kts 359°
2026-05-04 21:20 44.93420 -93.22637 3100 ft 197 kts 359°
2026-05-04 21:20 44.94855 -93.22436 3279 ft 219 kts 359°
2026-05-04 21:20 44.96466 -93.22179 3578 ft 246 kts
2026-05-04 21:20 44.98033 -93.21012 4304 ft 267 kts 38°
2026-05-04 21:21 44.99097 -93.18785 5154 ft 284 kts 66°
2026-05-04 21:21 44.99360 -93.15992 6081 ft 294 kts 93°
2026-05-04 21:21 44.99055 -93.13113 6862 ft 300 kts 99°
2026-05-04 21:21 44.98658 -93.10182 7586 ft 307 kts 99°
2026-05-04 21:22 44.98160 -93.07214 8248 ft 316 kts 111°
2026-05-04 21:22 44.97069 -93.04492 8925 ft 322 kts 126°
2026-05-04 21:22 44.95803 -93.01848 9623 ft 329 kts 127°
2026-05-04 21:22 44.94500 -92.99156 10179 ft 338 kts 128°
2026-05-04 21:23 44.93149 -92.96376 10838 ft 336 kts 128°
2026-05-04 21:23 44.91870 -92.93724 12112 ft 319 kts 130°
2026-05-04 21:23 44.90587 -92.91075 12516 ft 338 kts 130°
2026-05-04 21:23 44.89209 -92.88253 12682 ft 361 kts 130°
2026-05-04 21:24 44.88225 -92.86242 12789 ft 377 kts 130°
2026-05-04 21:24 44.86719 -92.83156 12989 ft 395 kts 129°
2026-05-04 21:24 44.85133 -92.79876 13527 ft 403 kts 130°
2026-05-04 21:24 44.83547 -92.76582 14105 ft 408 kts 130°
2026-05-04 21:25 44.81426 -92.72175 14957 ft 413 kts 130°
2026-05-04 21:25 44.80328 -92.69907 15379 ft 416 kts 130°
2026-05-04 21:25 44.78713 -92.66574 15984 ft 420 kts 130°
2026-05-04 21:25 44.77057 -92.63169 16597 ft 423 kts 130°
2026-05-04 21:26 44.75383 -92.59740 17208 ft 427 kts 131°
2026-05-04 21:26 44.73691 -92.56280 17802 ft 431 kts 131°
2026-05-04 21:26 44.71982 -92.52798 18327 ft 435 kts 131°
2026-05-04 21:26 44.70259 -92.49286 18848 ft 438 kts 131°
2026-05-04 21:27 44.68509 -92.45768 19363 ft 440 kts 132°
2026-05-04 21:27 44.66725 -92.42261 19861 ft 443 kts 133°
2026-05-04 21:27 44.64910 -92.38743 20362 ft 446 kts 133°
2026-05-04 21:27 44.63076 -92.35212 20866 ft 449 kts 133°
2026-05-04 21:28 44.61231 -92.31662 21358 ft 452 kts 133°
2026-05-04 21:28 44.59375 -92.28081 21848 ft 455 kts 133°
2026-05-04 21:28 44.57515 -92.24477 22341 ft 457 kts 133°
2026-05-04 21:28 44.55650 -92.20854 22824 ft 459 kts 133°
2026-05-04 21:29 44.53774 -92.17210 23287 ft 462 kts 133°
2026-05-04 21:29 44.51884 -92.13546 23655 ft 465 kts 133°
2026-05-04 21:29 44.49983 -92.09867 24048 ft 468 kts 133°
2026-05-04 21:29 44.48069 -92.06171 24420 ft 470 kts 133°
2026-05-04 21:30 44.46141 -92.02458 24807 ft 472 kts 133°
2026-05-04 21:30 44.44205 -91.98732 25199 ft 475 kts 133°
2026-05-04 21:30 44.42254 -91.94987 25567 ft 477 kts 134°
2026-05-04 21:30 44.40296 -91.91232 25894 ft 479 kts 133°
2026-05-04 21:31 44.36491 -91.83521 26685 ft 489 kts 124°
2026-05-04 21:31 44.34890 -91.79310 27038 ft 492 kts 123°
2026-05-04 21:31 44.33288 -91.75069 27406 ft 495 kts 123°
2026-05-04 21:32 44.31675 -91.70810 27751 ft 497 kts 123°
2026-05-04 21:32 44.30050 -91.66537 28096 ft 500 kts 123°
2026-05-04 21:32 44.28413 -91.62249 28467 ft 502 kts 123°
2026-05-04 21:32 44.26764 -91.57943 28795 ft 504 kts 123°
2026-05-04 21:33 44.25105 -91.53620 29133 ft 507 kts 123°
2026-05-04 21:33 44.23440 -91.49279 29442 ft 508 kts 123°
2026-05-04 21:33 44.21772 -91.44930 29746 ft 510 kts 123°
2026-05-04 21:33 44.20096 -91.40557 30002 ft 511 kts 123°
2026-05-04 21:34 44.18419 -91.36186 30285 ft 513 kts 123°
2026-05-04 21:34 44.16730 -91.31797 30543 ft 515 kts 123°
2026-05-04 21:34 44.15032 -91.27403 30835 ft 516 kts 123°
2026-05-04 21:34 44.13328 -91.23006 31228 ft 516 kts 123°
2026-05-04 21:35 44.11625 -91.18612 31597 ft 515 kts 123°
2026-05-04 21:35 44.09924 -91.14224 31961 ft 515 kts 123°
2026-05-04 21:35 44.08222 -91.09844 32339 ft 515 kts 123°
2026-05-04 21:35 44.06521 -91.05466 32710 ft 515 kts 123°
2026-05-04 21:36 44.04844 -91.01146 33062 ft 514 kts 123°
2026-05-04 21:36 44.03143 -90.96775 33415 ft 514 kts 123°
2026-05-04 21:36 44.01438 -90.92409 33723 ft 513 kts 123°
2026-05-04 21:36 43.99736 -90.88063 34073 ft 512 kts 123°
2026-05-04 21:37 43.98009 -90.83664 34397 ft 511 kts 123°
2026-05-04 21:37 43.96331 -90.79396 34698 ft 511 kts 123°
2026-05-04 21:37 43.94604 -90.75017 34977 ft 510 kts 123°
2026-05-04 21:37 43.92930 -90.70770 35305 ft 509 kts 123°
2026-05-04 21:38 43.91235 -90.66464 35602 ft 508 kts 123°
2026-05-04 21:38 43.89541 -90.62172 35897 ft 507 kts 123°
2026-05-04 21:38 43.87844 -90.57888 36176 ft 507 kts 123°
2026-05-04 21:38 43.86145 -90.53610 36439 ft 506 kts 123°
2026-05-04 21:39 43.84447 -90.49338 36534 ft 506 kts 123°
2026-05-04 21:39 43.81058 -90.40831 36546 ft 502 kts 123°
2026-05-04 21:40 43.77689 -90.32383 36544 ft 501 kts 123°
2026-05-04 21:40 43.74325 -90.23958 36541 ft 500 kts 123°
2026-05-04 21:41 43.70951 -90.15548 36540 ft 500 kts 123°
2026-05-04 21:41 43.67561 -90.07153 36535 ft 500 kts 123°
2026-05-04 21:42 43.64169 -89.98767 36534 ft 500 kts 123°
2026-05-04 21:42 43.60782 -89.90382 36517 ft 500 kts 123°
2026-05-04 21:43 43.57428 -89.82110 36558 ft 499 kts 123°
2026-05-04 21:43 43.54895 -89.73167 36554 ft 505 kts 104°
2026-05-04 21:44 43.53843 -89.63584 36557 ft 506 kts 98°
2026-05-04 21:44 43.52877 -89.53983 36551 ft 506 kts 99°
2026-05-04 21:45 43.51897 -89.44382 36546 ft 506 kts 99°
2026-05-04 21:45 43.50929 -89.34844 36541 ft 506 kts 99°
2026-05-04 21:46 43.49945 -89.25238 36533 ft 506 kts 99°
2026-05-04 21:46 43.48958 -89.15641 36549 ft 506 kts 99°
2026-05-04 21:47 43.47957 -89.06050 36541 ft 506 kts 99°
2026-05-04 21:47 43.46947 -88.96469 36544 ft 506 kts 99°
2026-05-04 21:48 43.45933 -88.86884 36542 ft 506 kts 99°
2026-05-04 21:48 43.44907 -88.77318 36537 ft 505 kts 99°
2026-05-04 21:49 43.43881 -88.67752 36541 ft 505 kts 99°
2026-05-04 21:49 43.42851 -88.58194 36544 ft 505 kts 99°
2026-05-04 21:50 43.41806 -88.48649 36518 ft 504 kts 99°
2026-05-04 21:50 43.40753 -88.39122 36525 ft 503 kts 99°
2026-05-04 21:51 43.39698 -88.29612 36527 ft 503 kts 99°
2026-05-04 21:51 43.38632 -88.20122 36523 ft 502 kts 99°
2026-05-04 21:52 43.37562 -88.10643 36542 ft 502 kts 99°
2026-05-04 21:52 43.36491 -88.01168 36554 ft 502 kts 99°
2026-05-04 21:53 43.35401 -87.91705 36557 ft 501 kts 99°
2026-05-04 21:53 43.34309 -87.82256 36556 ft 501 kts 99°
2026-05-04 21:54 43.33220 -87.72869 36552 ft 501 kts 100°
2026-05-04 21:54 43.32121 -87.63532 36561 ft 500 kts 100°
2026-05-04 21:55 43.31011 -87.54111 36563 ft 499 kts 100°
2026-05-04 21:55 43.29897 -87.44697 36562 ft 499 kts 100°
2026-05-04 21:56 43.28769 -87.35300 36564 ft 499 kts 100°
2026-05-04 21:56 43.27634 -87.25896 36567 ft 499 kts 100°
2026-05-04 21:57 43.26490 -87.16509 36575 ft 499 kts 100°
2026-05-04 21:57 43.26196 -87.07037 36575 ft 498 kts 86°
2026-05-04 21:58 43.26584 -86.97557 36570 ft 498 kts 86°
2026-05-04 21:58 43.26952 -86.88079 36578 ft 498 kts 86°
2026-05-04 21:59 43.27312 -86.78599 36579 ft 497 kts 86°
2026-05-04 21:59 43.27660 -86.69116 36574 ft 497 kts 86°
2026-05-04 22:00 43.28000 -86.59642 36580 ft 497 kts 86°
2026-05-04 22:00 43.28334 -86.50232 36570 ft 497 kts 86°
2026-05-04 22:01 43.28662 -86.40755 36589 ft 497 kts 86°
2026-05-04 22:01 43.28977 -86.31266 36599 ft 498 kts 87°
2026-05-04 22:02 43.29288 -86.21784 36589 ft 497 kts 87°
2026-05-04 22:02 43.29591 -86.12304 36597 ft 497 kts 87°
2026-05-04 22:03 43.29887 -86.02744 36260 ft 512 kts 88°
2026-05-04 22:03 43.29972 -85.97829 36007 ft 518 kts 89°
2026-05-04 22:03 43.30005 -85.92867 35747 ft 521 kts 90°
2026-05-04 22:03 43.30009 -85.87899 35491 ft 520 kts 90°
2026-05-04 22:04 43.30005 -85.82940 35193 ft 518 kts 90°
2026-05-04 22:04 43.30006 -85.78016 34824 ft 510 kts 90°
2026-05-04 22:04 43.30017 -85.73207 34707 ft 497 kts 89°
2026-05-04 22:04 43.30036 -85.68501 34603 ft 491 kts 89°
2026-05-04 22:05 43.30060 -85.63786 34331 ft 497 kts 89°
2026-05-04 22:05 43.30086 -85.58979 33215 ft 510 kts 89°
2026-05-04 22:05 43.30111 -85.54078 32182 ft 517 kts 89°
2026-05-04 22:05 43.30133 -85.49122 31188 ft 521 kts 90°
2026-05-04 22:06 43.30150 -85.44169 30637 ft 516 kts 90°
2026-05-04 22:06 43.30164 -85.39247 29951 ft 515 kts 90°
2026-05-04 22:06 43.30173 -85.34346 29228 ft 512 kts 90°
2026-05-04 22:06 43.30180 -85.29478 28583 ft 508 kts 91°
2026-05-04 22:07 43.29885 -85.24686 27931 ft 497 kts 102°
2026-05-04 22:07 43.29031 -85.20173 27313 ft 481 kts 112°
2026-05-04 22:07 43.27709 -85.16066 26777 ft 462 kts 123°
2026-05-04 22:07 43.26056 -85.12379 26243 ft 447 kts 127°
2026-05-04 22:08 43.24388 -85.08818 25732 ft 442 kts 127°
2026-05-04 22:08 43.22736 -85.05280 25223 ft 439 kts 127°
2026-05-04 22:08 43.21096 -85.01767 24727 ft 436 kts 127°
2026-05-04 22:08 43.19466 -84.98281 24237 ft 433 kts 127°
2026-05-04 22:09 43.17847 -84.94820 23772 ft 430 kts 127°
2026-05-04 22:09 43.16236 -84.91386 23304 ft 427 kts 127°
2026-05-04 22:09 43.14636 -84.87985 22813 ft 423 kts 127°
2026-05-04 22:09 43.13068 -84.84674 22400 ft 418 kts 128°
2026-05-04 22:10 43.11439 -84.81347 22095 ft 425 kts 129°
2026-05-04 22:10 43.09758 -84.78011 21732 ft 425 kts 129°
2026-05-04 22:10 43.08049 -84.74656 21373 ft 423 kts 129°
2026-05-04 22:10 43.06389 -84.71405 21047 ft 421 kts 129°
2026-05-04 22:11 43.04721 -84.68129 20705 ft 419 kts 129°
2026-05-04 22:11 43.03066 -84.64865 20358 ft 416 kts 129°
2026-05-04 22:11 43.01429 -84.61622 20025 ft 413 kts 129°
2026-05-04 22:11 42.99805 -84.58400 19687 ft 411 kts 129°
2026-05-04 22:12 42.98190 -84.55193 19349 ft 408 kts 129°
2026-05-04 22:12 42.96584 -84.52010 19012 ft 406 kts 129°
2026-05-04 22:12 42.94983 -84.48852 18686 ft 404 kts 129°
2026-05-04 22:12 42.93393 -84.45707 18316 ft 401 kts 129°
2026-05-04 22:13 42.91832 -84.42567 17933 ft 399 kts 129°
2026-05-04 22:13 42.90790 -84.40450 17645 ft 397 kts 128°
2026-05-04 22:13 42.89257 -84.37327 17247 ft 395 kts 128°
2026-05-04 22:13 42.87734 -84.34230 16964 ft 393 kts 128°
2026-05-04 22:14 42.86208 -84.31135 16704 ft 392 kts 128°
2026-05-04 22:14 42.84705 -84.28101 16479 ft 391 kts 128°
2026-05-04 22:14 42.83180 -84.25037 16117 ft 389 kts 129°
2026-05-04 22:14 42.81662 -84.21995 15761 ft 387 kts 129°
2026-05-04 22:15 42.80152 -84.18974 15382 ft 385 kts 129°
2026-05-04 22:15 42.78651 -84.15968 15016 ft 383 kts 129°
2026-05-04 22:15 42.77160 -84.12974 14652 ft 381 kts 129°
2026-05-04 22:15 42.75676 -84.09997 14284 ft 379 kts 129°
2026-05-04 22:16 42.74201 -84.07035 13929 ft 377 kts 129°
2026-05-04 22:16 42.72730 -84.04090 13573 ft 375 kts 129°
2026-05-04 22:16 42.71385 -84.01393 13234 ft 372 kts 129°
2026-05-04 22:16 42.69957 -83.98519 13089 ft 360 kts 129°
2026-05-04 22:17 42.68754 -83.95564 12860 ft 357 kts 117°
2026-05-04 22:17 42.68003 -83.92349 12479 ft 358 kts 108°
2026-05-04 22:17 42.67393 -83.89078 12074 ft 355 kts 107°
2026-05-04 22:17 42.66791 -83.85841 11658 ft 353 kts 107°
2026-05-04 22:18 42.66195 -83.82642 11481 ft 344 kts 108°
2026-05-04 22:18 42.65614 -83.79536 11096 ft 336 kts 108°
2026-05-04 22:18 42.65036 -83.76484 10571 ft 331 kts 108°
2026-05-04 22:18 42.64464 -83.73476 10064 ft 326 kts 108°
2026-05-04 22:19 42.63901 -83.70521 9576 ft 320 kts 108°
2026-05-04 22:19 42.63358 -83.67666 9394 ft 304 kts 108°
2026-05-04 22:19 42.62841 -83.64935 9023 ft 295 kts 109°
2026-05-04 22:19 42.62328 -83.62278 8798 ft 288 kts 110°
2026-05-04 22:20 42.61783 -83.59660 8655 ft 289 kts 110°
2026-05-04 22:20 42.61220 -83.57048 8371 ft 287 kts 111°
2026-05-04 22:20 42.60658 -83.54453 8039 ft 286 kts 111°
2026-05-04 22:20 42.60099 -83.51873 7692 ft 285 kts 111°
2026-05-04 22:21 42.59543 -83.49299 7364 ft 283 kts 111°
2026-05-04 22:21 42.58988 -83.46742 7041 ft 282 kts 111°
2026-05-04 22:21 42.58434 -83.44191 6698 ft 281 kts 111°
2026-05-04 22:21 42.57886 -83.41653 6377 ft 280 kts 111°
2026-05-04 22:22 42.57343 -83.39126 6137 ft 275 kts 111°
2026-05-04 22:22 42.56826 -83.36686 6042 ft 264 kts 110°
2026-05-04 22:22 42.56555 -83.34207 5861 ft 270 kts 94°
2026-05-04 22:22 42.56541 -83.31693 5519 ft 270 kts 94°
2026-05-04 22:23 42.56538 -83.29116 5202 ft 269 kts 94°
2026-05-04 22:23 42.56538 -83.26616 4900 ft 268 kts 94°
2026-05-04 22:23 42.56537 -83.24092 4595 ft 267 kts 94°
2026-05-04 22:23 42.56472 -83.21589 4283 ft 263 kts 105°
2026-05-04 22:24 42.55782 -83.19406 4054 ft 243 kts 133°
2026-05-04 22:24 42.54571 -83.17974 3967 ft 224 kts 159°
2026-05-04 22:24 42.53133 -83.17302 3989 ft 216 kts 174°
2026-05-04 22:24 42.51675 -83.16813 3983 ft 215 kts 174°
2026-05-04 22:25 42.50205 -83.16683 3978 ft 207 kts 193°
2026-05-04 22:25 42.48846 -83.17224 3987 ft 202 kts 211°
2026-05-04 22:25 42.47618 -83.18139 3986 ft 200 kts 213°
2026-05-04 22:25 42.46401 -83.19037 3984 ft 199 kts 212°
2026-05-04 22:26 42.45181 -83.19940 3985 ft 200 kts 213°
2026-05-04 22:26 42.43962 -83.20844 3983 ft 199 kts 213°
2026-05-04 22:26 42.42747 -83.21746 3987 ft 199 kts 213°
2026-05-04 22:26 42.41528 -83.22651 3916 ft 200 kts 213°
2026-05-04 22:27 42.40316 -83.23549 3762 ft 198 kts 213°
2026-05-04 22:27 42.39113 -83.24441 3630 ft 197 kts 213°
2026-05-04 22:27 42.37922 -83.25323 3497 ft 191 kts 213°
2026-05-04 22:27 42.36776 -83.26170 3386 ft 182 kts 213°
2026-05-04 22:28 42.35705 -83.26962 3281 ft 169 kts 213°
2026-05-04 22:28 42.34685 -83.27719 3214 ft 166 kts 213°
2026-05-04 22:28 42.33684 -83.28459 3064 ft 162 kts 214°
2026-05-04 22:28 42.32705 -83.29184 2876 ft 160 kts 213°
2026-05-04 22:29 42.31725 -83.29910 2666 ft 162 kts 213°
2026-05-04 22:29 42.30750 -83.30629 2455 ft 153 kts 213°
2026-05-04 22:29 42.29856 -83.31287 2296 ft 142 kts 213°
2026-05-04 22:29 42.29000 -83.31921 2094 ft 140 kts 213°
2026-05-04 22:30 42.28166 -83.32538 1894 ft 138 kts 213°
2026-05-04 22:30 42.27319 -83.33164 1733 ft 139 kts 214°
2026-05-04 22:30 42.26465 -83.33796 1572 ft 138 kts 212°
2026-05-04 22:30 42.25626 -83.34408 1359 ft 137 kts 211°
2026-05-04 22:31 42.24788 -83.35036 1202 ft 141 kts 211°
2026-05-04 22:31 42.23937 -83.35669 1015 ft 142 kts 208°
2026-05-04 22:31 42.23074 -83.36296 800 ft 139 kts 207°
2026-05-04 22:31 42.22229 -83.36921 661 ft 132 kts 207°
2026-05-04 22:32 42.21469 -83.37479 682 ft 125 kts 207°
2026-05-04 22:32 42.20620 -83.38095 1248 ft 151 kts 209°
2026-05-04 22:32 42.19656 -83.38778 2107 ft 157 kts 214°
2026-05-04 22:32 42.18931 -83.39899 2811 ft 171 kts 248°
2026-05-04 22:33 42.18905 -83.41566 3001 ft 199 kts 282°
2026-05-04 22:33 42.19511 -83.43335 3427 ft 213 kts 292°
2026-05-04 22:33 42.20227 -83.45101 3901 ft 216 kts 292°
2026-05-04 22:33 42.20966 -83.46891 3991 ft 215 kts 292°
2026-05-04 22:34 42.21693 -83.48645 4001 ft 214 kts 292°
2026-05-04 22:34 42.22421 -83.50394 4018 ft 213 kts 292°
2026-05-04 22:34 42.23183 -83.52119 4004 ft 217 kts 301°
2026-05-04 22:34 42.24448 -83.53321 4003 ft 234 kts 334°
2026-05-04 22:35 42.26117 -83.53443 4010 ft 251 kts
2026-05-04 22:35 42.27768 -83.52572 4007 ft 257 kts 21°
2026-05-04 22:35 42.29371 -83.51505 4003 ft 257 kts 22°
2026-05-04 22:35 42.30950 -83.50422 4003 ft 258 kts 23°
2026-05-04 22:36 42.32549 -83.49324 4003 ft 258 kts 23°
2026-05-04 22:36 42.34149 -83.48228 4000 ft 258 kts 23°
2026-05-04 22:36 42.35739 -83.47137 3697 ft 256 kts 22°
2026-05-04 22:36 42.37326 -83.46052 3292 ft 255 kts 22°
2026-05-04 22:37 42.38908 -83.44974 3013 ft 255 kts 23°
2026-05-04 22:37 42.40500 -83.43879 3008 ft 257 kts 23°
2026-05-04 22:37 42.42090 -83.42789 3008 ft 258 kts 23°
2026-05-04 22:37 42.43695 -83.41699 2993 ft 257 kts 23°
2026-05-04 22:38 42.45250 -83.40545 2983 ft 255 kts 35°
2026-05-04 22:38 42.46345 -83.38669 2984 ft 263 kts 68°
2026-05-04 22:38 42.46646 -83.36270 2993 ft 257 kts 96°
2026-05-04 22:38 42.46465 -83.33887 2989 ft 252 kts 102°
2026-05-04 22:39 42.46224 -83.31547 2987 ft 250 kts 103°
2026-05-04 22:39 42.45664 -83.29381 2985 ft 244 kts 130°
2026-05-04 22:39 42.44450 -83.27938 2979 ft 222 kts 165°
2026-05-04 22:39 42.42962 -83.27462 3004 ft 214 kts 180°
2026-05-04 22:40 42.41537 -83.27255 2971 ft 199 kts 183°
2026-05-04 22:40 42.40201 -83.27064 2981 ft 190 kts 181°
2026-05-04 22:40 42.38899 -83.26892 3008 ft 187 kts 182°
2026-05-04 22:40 42.37606 -83.26727 3012 ft 186 kts 183°
2026-05-04 22:41 42.36343 -83.26702 3003 ft 176 kts 197°
2026-05-04 22:41 42.35235 -83.27307 3007 ft 171 kts 213°
2026-05-04 22:41 42.34191 -83.28082 2996 ft 168 kts 213°
2026-05-04 22:41 42.33180 -83.28831 2912 ft 163 kts 213°
2026-05-04 22:42 42.32217 -83.29542 2750 ft 151 kts 213°
2026-05-04 22:42 42.31324 -83.30203 2574 ft 143 kts 213°
2026-05-04 22:42 42.30463 -83.30840 2399 ft 140 kts 213°
2026-05-04 22:42 42.29615 -83.31467 2218 ft 137 kts 213°
2026-05-04 22:43 42.28778 -83.32086 2043 ft 137 kts 213°
2026-05-04 22:43 42.27939 -83.32706 1862 ft 137 kts 213°
2026-05-04 22:43 42.27095 -83.33330 1678 ft 141 kts 213°
2026-05-04 22:43 42.26236 -83.33954 1496 ft 138 kts 212°
2026-05-04 22:44 42.25412 -83.34588 1289 ft 135 kts 212°
2026-05-04 22:44 42.24563 -83.35195 1142 ft 139 kts 210°
2026-05-04 22:44 42.23711 -83.35847 978 ft 144 kts 209°
2026-05-04 22:44 42.22850 -83.36466 735 ft 139 kts 208°
2026-05-04 22:45 42.22025 -83.37060 647 ft 126 kts 215°
2026-05-04 22:45 42.21134 -83.37727 647 ft 44 kts 208°
2026-05-04 22:45 42.20884 -83.37909 645 ft 40 kts 208°
2026-05-04 22:46 42.20672 -83.38001 647 ft 24 kts 178°
2026-05-04 22:46 42.20531 -83.37957 647 ft 20 kts 172°
2026-05-04 22:46 42.20406 -83.38009 650 ft 19 kts 210°
2026-05-04 22:46 42.20289 -83.38096 648 ft 20 kts 208°
2026-05-04 22:47 42.20171 -83.38177 647 ft 16 kts 194°
2026-05-04 22:47 42.20101 -83.38085 647 ft 15 kts 118°
2026-05-04 22:47 42.20035 -83.37984 648 ft 14 kts 145°
2026-05-04 22:47 42.19948 -83.37915 648 ft 15 kts 149°
2026-05-04 22:48 42.19862 -83.37841 648 ft 15 kts 144°
2026-05-04 22:48 42.19800 -83.37731 648 ft 15 kts 119°
2026-05-04 22:48 42.19751 -83.37608 648 ft 16 kts 118°
2026-05-04 22:48 42.19696 -83.37471 648 ft 18 kts 118°
2026-05-04 22:49 42.19632 -83.37319 649 ft 20 kts 120°
2026-05-04 22:49 42.19587 -83.37140 648 ft 21 kts 88°
2026-05-04 22:49 42.19653 -83.36973 648 ft 21 kts 38°
2026-05-04 22:49 42.19778 -83.36876 648 ft 21 kts 28°
2026-05-04 22:50 42.19907 -83.36781 648 ft 21 kts 28°
2026-05-04 22:50 42.20035 -83.36687 648 ft 21 kts 28°
2026-05-04 22:50 42.20165 -83.36591 647 ft 22 kts 28°
2026-05-04 22:50 42.20299 -83.36493 646 ft 22 kts 29°
2026-05-04 22:51 42.20433 -83.36395 646 ft 22 kts 28°
2026-05-04 22:51 42.20567 -83.36295 648 ft 22 kts 29°
2026-05-04 22:51 42.20701 -83.36197 646 ft 22 kts 28°
2026-05-04 22:51 42.20812 -83.36063 647 ft 22 kts 58°
2026-05-04 22:52 42.20923 -83.35930 646 ft 22 kts 29°
2026-05-04 22:52 42.21052 -83.35835 646 ft 21 kts 28°
2026-05-04 22:52 42.21178 -83.35743 646 ft 21 kts 28°
2026-05-04 22:52 42.21283 -83.35665 646 ft 16 kts 28°
2026-05-04 22:53 42.21384 -83.35590 648 ft 16 kts 29°
2026-05-04 22:53 42.21449 -83.35537 646 ft 9 kts 43°
2026-05-04 22:53 42.21456 -83.35476 646 ft 4 kts 109°
2026-05-04 22:53 42.21447 -83.35453 648 ft 2 kts 119°
2026-05-04 22:54 42.21444 -83.35443 647 ft 0 kts 118°
2026-05-04 22:54 42.21443 -83.35443 646 ft 0 kts 118°